Wakefield, VA

7:07 PM EST on January 23, 2018 (GMT -0500)
Wakefield Municipal

Weather History for KAKQ - December, 2012

Change the Weather History Date:

Sunday, December 2, 2012

  Actual Average (KJGG) Record (KJGG)
Temperature  
Mean Temperature 49 °F -  
Max Temperature 64 °F 56 °F 72 °F (1970)
Min Temperature 34 °F 34 °F 20 °F (1965)
Degree Days  
Heating Degree Days 16    
Moisture  
Dew Point 41 °F    
Average Humidity 81    
Maximum Humidity 93    
Minimum Humidity 60    
Precipitation  
Precipitation 0.00 in - - ()
Sea Level Pressure  
Sea Level Pressure 30.34 in    
Wind  
Wind Speed 1 mph (SSW)    
Max Wind Speed 8 mph    
Max Gust Speed -    
Visibility 6 miles    
Events Rain    
Averages and records for this station are not official NWS values.
T = Trace of Precipitation, MM = Missing Value Source: NWS Daily Summary

Daily Weather History Graph

Daily Weather History Graph

Search for Another Location

Airport or City:

Trip Planner

Search our weather history database for the weather conditions in past years. The results will help you decide how hot, cold, wet, or windy it might be!

Date:

Astronomy

Dec. 02, 2012 Rise Set
Actual Time 7:03 AM EST 4:51 PM EST
Civil Twilight 6:35 AM EST 5:19 PM EST
Nautical Twilight 6:03 AM EST 5:52 PM EST
Astronomical Twilight 5:31 AM EST 6:23 PM EST
Moon 8:34 PM EST (12/2) 9:54 AM EST (12/2)
Length of Visible Light 10h 44m
Length of Day
9h 47m
Waning Gibbous, 86% of the Moon is Illuminated
Dec 2
Waning Gibbous
Dec 6
Last Quarter
Dec 13
New
Dec 20
First Quarter
Dec 28
Full

Hourly Weather History & Observations

Time (EST) Temp. Dew Point Humidity Pressure Visibility Wind Dir Wind Speed Gust Speed Precip Events Conditions
12:54 AM 36.0 °F 33.1 °F 89% 30.39 in 3.0 mi Calm Calm - N/A   Clear
1:54 AM 36.0 °F 33.1 °F 89% 30.40 in 4.0 mi Calm Calm - N/A   Clear
2:25 AM 35.6 °F 33.8 °F 93% 30.39 in 2.5 mi Calm Calm - N/A   Clear
2:38 AM 35.6 °F 33.8 °F 93% 30.39 in 3.0 mi Calm Calm - N/A   Clear
2:54 AM 35.1 °F 33.1 °F 92% 30.39 in 4.0 mi Calm Calm - N/A   Clear
3:54 AM 36.0 °F 34.0 °F 93% 30.38 in 3.0 mi Calm Calm - N/A   Clear
4:54 AM 36.0 °F 33.1 °F 89% 30.38 in 4.0 mi Calm Calm - N/A   Clear
5:54 AM 34.0 °F 32.0 °F 92% 30.39 in 3.0 mi Calm Calm - N/A   Clear
6:46 AM 35.6 °F 30.2 °F 81% 30.38 in 2.5 mi Calm Calm - N/A   Clear
6:54 AM 35.1 °F 33.1 °F 92% 30.40 in 2.5 mi Calm Calm - N/A   Clear
7:19 AM 35.6 °F 33.8 °F 93% 30.39 in 1.8 mi Calm Calm - N/A   Clear
7:31 AM 35.6 °F 33.8 °F 93% 30.39 in 2.0 mi Calm Calm - N/A   Clear
7:54 AM 37.0 °F 35.1 °F 93% 30.41 in 2.5 mi Calm Calm - N/A   Clear
8:10 AM 39.2 °F 35.6 °F 87% 30.40 in 3.0 mi Calm Calm - N/A   Clear
8:20 AM 41.0 °F 37.4 °F 87% 30.40 in 2.5 mi Calm Calm - N/A   Clear
8:42 AM 44.6 °F 41.0 °F 87% 30.40 in 3.0 mi Calm Calm - N/A   Clear
8:54 AM 45.0 °F 42.1 °F 90% 30.41 in 3.0 mi Calm Calm - N/A   Clear
9:54 AM 51.1 °F 45.0 °F 80% 30.40 in 5.0 mi South 4.6 mph - N/A   Haze
10:54 AM 55.0 °F 46.9 °F 74% 30.37 in 6.0 mi South 4.6 mph - N/A   Haze
11:54 AM 57.0 °F 46.9 °F 69% 30.35 in 7.0 mi SW 4.6 mph - N/A   Clear
12:54 PM 60.1 °F 48.9 °F 67% 30.31 in 8.0 mi SW 3.5 mph - N/A   Clear
1:54 PM 63.0 °F 48.9 °F 60% 30.28 in 10.0 mi SW 6.9 mph - N/A   Clear
2:54 PM 64.0 °F 50.0 °F 60% 30.26 in 10.0 mi SSW 8.1 mph - N/A   Clear
3:54 PM 63.0 °F 48.9 °F 60% 30.24 in 10.0 mi South 6.9 mph - N/A   Clear
4:54 PM 59.0 °F 48.0 °F 67% 30.24 in 10.0 mi South 4.6 mph - N/A   Clear
5:54 PM 57.0 °F 48.0 °F 72% 30.25 in 10.0 mi Calm Calm - N/A   Clear
6:54 PM 55.9 °F 48.0 °F 75% 30.25 in 10.0 mi South 4.6 mph - N/A   Clear
7:54 PM 55.9 °F 46.9 °F 72% 30.25 in 9.0 mi SSW 4.6 mph - N/A   Clear
8:54 PM 55.0 °F 46.9 °F 74% 30.25 in 9.0 mi SSW 4.6 mph - N/A   Clear
9:54 PM 55.9 °F 48.0 °F 75% 30.24 in 9.0 mi South 4.6 mph - N/A   Overcast
10:54 PM 55.9 °F 48.0 °F 75% 30.24 in 9.0 mi Variable 3.5 mph - N/A   Overcast
11:54 PM 57.0 °F 50.0 °F 77% 30.24 in 8.0 mi SW 6.9 mph - 0.00 in Rain Light Rain